Time,TemperatureF,DewpointF,PressureIn,WindDirection,WindDirectionDegrees,WindSpeedMPH,WindSpeedGustMPH,Humidity,HourlyPrecipIn,Conditions,Clouds,dailyrainin,SoftwareType,DateUTC
2015-03-02 00:11:00,36.1,35.8,30.38,NNE,22,3.2,-999.0,99,-99.99,,,0.00,Acu-Link.com,2015-03-02 06:11:00,
2015-03-02 00:26:00,36.0,35.7,30.38,NNW,337,2.7,-999.0,99,-99.99,,,0.00,Acu-Link.com,2015-03-02 06:26:00,
2015-03-02 00:41:00,35.8,35.5,30.38,NNE,22,3.2,-999.0,99,-99.99,,,0.00,Acu-Link.com,2015-03-02 06:41:00,
2015-03-02 00:56:00,35.6,35.3,30.38,NNE,22,2.2,-999.0,99,-99.99,,,0.00,Acu-Link.com,2015-03-02 06:56:00,
2015-03-02 01:12:00,35.4,35.1,30.38,NE,45,2.2,-999.0,99,-99.99,,,0.00,Acu-Link.com,2015-03-02 07:12:00,
2015-03-02 01:27:00,35.1,34.8,30.38,NW,315,2.7,-999.0,99,-99.99,,,0.00,Acu-Link.com,2015-03-02 07:27:00,
2015-03-02 01:42:00,35.1,34.8,30.38,NNE,22,2.2,-999.0,99,-99.99,,,0.00,Acu-Link.com,2015-03-02 07:42:00,
2015-03-02 01:57:00,34.9,34.6,30.38,NNE,22,3.2,-999.0,99,-99.99,,,0.00,Acu-Link.com,2015-03-02 07:57:00,
2015-03-02 02:12:00,34.9,34.6,30.38,West,270,2.7,-999.0,99,-99.99,,,0.00,Acu-Link.com,2015-03-02 08:12:00,
2015-03-02 02:27:00,34.7,34.4,30.37,NNE,22,2.2,-999.0,99,-99.99,,,0.00,Acu-Link.com,2015-03-02 08:27:00,
2015-03-02 02:43:00,34.5,34.2,30.38,NNE,22,2.7,-999.0,99,-99.99,,,0.00,Acu-Link.com,2015-03-02 08:43:00,
2015-03-02 02:58:00,34.5,34.2,30.38,North,0,2.2,-999.0,99,-99.99,,,0.00,Acu-Link.com,2015-03-02 08:58:00,
2015-03-02 03:13:00,34.3,34.0,30.37,NE,45,6.8,-999.0,99,-99.99,,,0.00,Acu-Link.com,2015-03-02 09:13:00,
2015-03-02 03:28:00,34.3,34.0,30.37,NE,45,2.2,-999.0,99,-99.99,,,0.06,Acu-Link.com,2015-03-02 09:28:00,
2015-03-02 03:43:00,34.3,34.0,30.35,NNE,22,2.2,-999.0,99,-99.99,,,0.06,Acu-Link.com,2015-03-02 09:43:00,
2015-03-02 03:59:00,34.3,34.0,30.36,NNW,337,3.2,-999.0,99,-99.99,,,0.06,Acu-Link.com,2015-03-02 09:59:00,
2015-03-02 04:14:00,34.3,34.0,30.36,NNE,22,2.7,-999.0,99,-99.99,,,0.06,Acu-Link.com,2015-03-02 10:14:00,
2015-03-02 04:29:00,34.3,34.0,30.36,NW,315,2.2,-999.0,99,-99.99,,,0.06,Acu-Link.com,2015-03-02 10:29:00,
2015-03-02 04:44:00,34.3,34.0,30.36,NE,45,2.7,-999.0,99,-99.99,,,0.06,Acu-Link.com,2015-03-02 10:44:00,
2015-03-02 05:00:00,34.3,34.0,30.36,North,0,3.2,-999.0,99,-99.99,,,0.06,Acu-Link.com,2015-03-02 11:00:00,
2015-03-02 05:15:00,34.2,33.9,30.36,North,0,3.2,-999.0,99,-99.99,,,0.06,Acu-Link.com,2015-03-02 11:15:00,
2015-03-02 05:30:00,34.2,33.9,30.35,North,0,2.2,-999.0,99,-99.99,,,0.06,Acu-Link.com,2015-03-02 11:30:00,
2015-03-02 05:45:00,34.2,33.9,30.36,North,0,4.2,-999.0,99,-99.99,,,0.06,Acu-Link.com,2015-03-02 11:45:00,
2015-03-02 06:00:00,34.2,33.9,30.36,NNW,337,2.2,-999.0,99,-99.99,,,0.06,Acu-Link.com,2015-03-02 12:00:00,
2015-03-02 06:16:00,34.2,33.9,30.37,North,0,4.2,-999.0,99,-99.99,,,0.06,Acu-Link.com,2015-03-02 12:16:00,
2015-03-02 06:31:00,34.2,33.9,30.37,NNW,337,3.2,-999.0,99,-99.99,,,0.06,Acu-Link.com,2015-03-02 12:31:00,
2015-03-02 06:46:00,34.2,33.9,30.37,NNE,22,3.2,-999.0,99,-99.99,,,0.07,Acu-Link.com,2015-03-02 12:46:00,
2015-03-02 07:01:00,34.2,33.9,30.37,North,0,2.2,-999.0,99,-99.99,,,0.07,Acu-Link.com,2015-03-02 13:01:00,
2015-03-02 07:16:00,34.2,33.9,30.38,NNE,22,2.2,-999.0,99,-99.99,,,0.07,Acu-Link.com,2015-03-02 13:16:00,
2015-03-02 07:32:00,34.2,33.9,30.37,NNE,22,2.2,-999.0,99,-99.99,,,0.07,Acu-Link.com,2015-03-02 13:32:00,
2015-03-02 07:47:00,34.3,34.0,30.38,North,0,2.2,-999.0,99,-99.99,,,0.07,Acu-Link.com,2015-03-02 13:47:00,
2015-03-02 08:02:00,34.5,34.2,30.38,NE,45,2.7,-999.0,99,-99.99,,,0.07,Acu-Link.com,2015-03-02 14:02:00,
2015-03-02 08:17:00,34.7,34.4,30.38,NNE,22,2.2,-999.0,99,-99.99,,,0.07,Acu-Link.com,2015-03-02 14:17:00,
2015-03-02 08:33:00,35.1,34.8,30.38,East,90,2.7,-999.0,99,-99.99,,,0.07,Acu-Link.com,2015-03-02 14:33:00,
2015-03-02 08:48:00,35.2,34.9,30.39,NNW,337,2.2,-999.0,99,-99.99,,,0.07,Acu-Link.com,2015-03-02 14:48:00,
2015-03-02 09:03:00,35.6,35.3,30.39,NNW,337,2.7,-999.0,99,-99.99,,,0.07,Acu-Link.com,2015-03-02 15:03:00,
2015-03-02 09:18:00,35.8,35.5,30.39,North,0,2.2,-999.0,99,-99.99,,,0.07,Acu-Link.com,2015-03-02 15:18:00,
2015-03-02 09:33:00,36.3,36.0,30.39,NE,45,2.2,-999.0,99,-99.99,,,0.07,Acu-Link.com,2015-03-02 15:33:00,
2015-03-02 09:49:00,36.7,36.4,30.39,NNE,22,2.2,-999.0,99,-99.99,,,0.07,Acu-Link.com,2015-03-02 15:49:00,
2015-03-02 10:04:00,37.2,36.9,30.39,NNW,337,3.7,-999.0,99,-99.99,,,0.07,Acu-Link.com,2015-03-02 16:04:00,
2015-03-02 10:19:00,37.2,36.9,30.39,NNE,22,2.7,-999.0,99,-99.99,,,0.07,Acu-Link.com,2015-03-02 16:19:00,
2015-03-02 10:34:00,37.8,37.5,30.38,NNE,22,2.2,-999.0,99,-99.99,,,0.07,Acu-Link.com,2015-03-02 16:34:00,
2015-03-02 10:49:00,38.3,38.0,30.38,ENE,67,2.2,-999.0,99,-99.99,,,0.07,Acu-Link.com,2015-03-02 16:49:00,
2015-03-02 11:05:00,38.7,38.4,30.37,NE,45,3.2,-999.0,99,-99.99,,,0.07,Acu-Link.com,2015-03-02 17:05:00,
2015-03-02 11:20:00,39.2,38.9,30.37,NNE,22,2.2,-999.0,99,-99.99,,,0.07,Acu-Link.com,2015-03-02 17:20:00,
2015-03-02 11:35:00,39.6,39.3,30.37,ENE,67,2.2,-999.0,99,-99.99,,,0.07,Acu-Link.com,2015-03-02 17:35:00,
2015-03-02 11:50:00,39.6,39.3,30.36,North,0,2.2,-999.0,99,-99.99,,,0.07,Acu-Link.com,2015-03-02 17:50:00,
2015-03-02 12:05:00,39.7,39.4,30.35,NW,315,2.2,-999.0,99,-99.99,,,0.07,Acu-Link.com,2015-03-02 18:05:00,
2015-03-02 12:21:00,40.6,40.3,30.34,ENE,67,2.2,-999.0,99,-99.99,,,0.07,Acu-Link.com,2015-03-02 18:21:00,
2015-03-02 12:36:00,42.1,41.8,30.32,NNW,337,1.7,-999.0,99,-99.99,,,0.07,Acu-Link.com,2015-03-02 18:36:00,
2015-03-02 12:51:00,42.4,42.1,30.32,NE,45,1.7,-999.0,99,-99.99,,,0.07,Acu-Link.com,2015-03-02 18:51:00,
2015-03-02 13:06:00,43.3,43.0,30.30,ESE,112,1.7,-999.0,99,-99.99,,,0.07,Acu-Link.com,2015-03-02 19:06:00,
2015-03-02 13:21:00,43.7,43.4,30.28,East,90,2.2,-999.0,99,-99.99,,,0.07,Acu-Link.com,2015-03-02 19:21:00,
2015-03-02 13:36:00,43.7,43.2,30.28,ESE,112,2.7,-999.0,98,-99.99,,,0.07,Acu-Link.com,2015-03-02 19:36:00,
2015-03-02 13:51:00,43.9,43.1,30.28,SSE,157,2.2,-999.0,97,-99.99,,,0.07,Acu-Link.com,2015-03-02 19:51:00,
2015-03-02 14:06:00,42.4,42.1,30.27,NE,45,4.2,-999.0,99,-99.99,,,0.07,Acu-Link.com,2015-03-02 20:06:00,
2015-03-02 14:22:00,43.3,43.0,30.28,NE,45,1.7,-999.0,99,-99.99,,,0.07,Acu-Link.com,2015-03-02 20:22:00,
2015-03-02 14:37:00,43.2,42.7,30.26,ESE,112,1.7,-999.0,98,-99.99,,,0.07,Acu-Link.com,2015-03-02 20:37:00,
2015-03-02 14:52:00,43.2,42.9,30.26,NE,45,1.7,-999.0,99,-99.99,,,0.07,Acu-Link.com,2015-03-02 20:52:00,
2015-03-02 15:07:00,42.4,42.1,30.27,ENE,67,2.2,-999.0,99,-99.99,,,0.07,Acu-Link.com,2015-03-02 21:07:00,
2015-03-02 15:23:00,42.1,41.8,30.27,ENE,67,0.0,-999.0,99,-99.99,,,0.07,Acu-Link.com,2015-03-02 21:23:00,
2015-03-02 15:38:00,41.9,41.6,30.26,ENE,67,1.7,-999.0,99,-99.99,,,0.07,Acu-Link.com,2015-03-02 21:38:00,
2015-03-02 15:53:00,42.3,42.0,30.25,NE,45,2.2,-999.0,99,-99.99,,,0.07,Acu-Link.com,2015-03-02 21:53:00,
2015-03-02 16:08:00,42.4,42.1,30.24,NNE,22,1.1,-999.0,99,-99.99,,,0.07,Acu-Link.com,2015-03-02 22:08:00,
2015-03-02 16:23:00,42.3,42.0,30.24,East,90,0.0,-999.0,99,-99.99,,,0.07,Acu-Link.com,2015-03-02 22:23:00,
2015-03-02 16:39:00,41.7,41.4,30.23,NE,45,1.7,-999.0,99,-99.99,,,0.07,Acu-Link.com,2015-03-02 22:39:00,
2015-03-02 16:54:00,41.9,41.6,30.23,ESE,112,2.7,-999.0,99,-99.99,,,0.07,Acu-Link.com,2015-03-02 22:54:00,
2015-03-02 17:09:00,41.2,40.9,30.21,NE,45,3.2,-999.0,99,-99.99,,,0.07,Acu-Link.com,2015-03-02 23:09:00,
2015-03-02 17:24:00,41.4,41.1,30.22,ESE,112,1.7,-999.0,99,-99.99,,,0.07,Acu-Link.com,2015-03-02 23:24:00,
2015-03-02 17:39:00,41.2,40.9,30.22,ESE,112,0.0,-999.0,99,-99.99,,,0.07,Acu-Link.com,2015-03-02 23:39:00,
2015-03-02 17:55:00,41.2,40.9,30.22,North,0,0.0,-999.0,99,-99.99,,,0.07,Acu-Link.com,2015-03-02 23:55:00,
2015-03-02 18:10:00,41.0,40.7,30.21,ESE,112,0.0,-999.0,99,-99.99,,,0.07,Acu-Link.com,2015-03-03 00:10:00,
2015-03-02 18:25:00,41.0,40.7,30.21,SSE,157,2.2,-999.0,99,-99.99,,,0.07,Acu-Link.com,2015-03-03 00:25:00,
2015-03-02 18:40:00,40.8,40.5,30.22,SSE,157,2.2,-999.0,99,-99.99,,,0.07,Acu-Link.com,2015-03-03 00:40:00,
2015-03-02 18:55:00,40.8,40.5,30.22,North,0,0.0,-999.0,99,-99.99,,,0.07,Acu-Link.com,2015-03-03 00:55:00,
2015-03-02 19:11:00,40.6,40.3,30.21,SSE,157,2.2,-999.0,99,-99.99,,,0.07,Acu-Link.com,2015-03-03 01:11:00,
2015-03-02 19:26:00,40.6,40.3,30.20,ESE,112,2.2,-999.0,99,-99.99,,,0.07,Acu-Link.com,2015-03-03 01:26:00,
2015-03-02 19:41:00,40.6,40.3,30.21,SSE,157,2.2,-999.0,99,-99.99,,,0.07,Acu-Link.com,2015-03-03 01:41:00,
2015-03-02 19:56:00,40.6,40.3,30.21,SSE,157,2.7,-999.0,99,-99.99,,,0.07,Acu-Link.com,2015-03-03 01:56:00,
2015-03-02 20:11:00,40.5,40.2,30.21,East,90,1.7,-999.0,99,-99.99,,,0.07,Acu-Link.com,2015-03-03 02:11:00,
2015-03-02 20:27:00,40.5,40.2,30.20,East,90,2.2,-999.0,99,-99.99,,,0.07,Acu-Link.com,2015-03-03 02:27:00,
2015-03-02 20:42:00,40.5,40.2,30.21,ESE,112,1.1,-999.0,99,-99.99,,,0.07,Acu-Link.com,2015-03-03 02:42:00,
2015-03-02 20:57:00,40.5,40.2,30.20,South,180,1.7,-999.0,99,-99.99,,,0.07,Acu-Link.com,2015-03-03 02:57:00,
2015-03-02 21:12:00,40.5,40.2,30.21,South,180,2.7,-999.0,99,-99.99,,,0.07,Acu-Link.com,2015-03-03 03:12:00,
2015-03-02 21:27:00,40.5,40.2,30.21,SE,135,2.2,-999.0,99,-99.99,,,0.07,Acu-Link.com,2015-03-03 03:27:00,
2015-03-02 21:42:00,40.5,40.2,30.20,South,180,2.2,-999.0,99,-99.99,,,0.07,Acu-Link.com,2015-03-03 03:42:00,
2015-03-02 21:58:00,40.5,40.2,30.20,ESE,112,1.7,-999.0,99,-99.99,,,0.07,Acu-Link.com,2015-03-03 03:58:00,
2015-03-02 22:13:00,40.5,40.2,30.20,SSE,157,2.7,-999.0,99,-99.99,,,0.07,Acu-Link.com,2015-03-03 04:13:00,
2015-03-02 22:28:00,40.5,40.2,30.19,SSE,157,2.7,-999.0,99,-99.99,,,0.07,Acu-Link.com,2015-03-03 04:28:00,
2015-03-02 22:43:00,40.5,40.2,30.19,SE,135,2.2,-999.0,99,-99.99,,,0.07,Acu-Link.com,2015-03-03 04:43:00,
2015-03-02 22:58:00,40.5,40.2,30.18,SE,135,1.7,-999.0,99,-99.99,,,0.07,Acu-Link.com,2015-03-03 04:58:00,
2015-03-02 23:14:00,40.5,40.2,30.17,South,180,3.7,-999.0,99,-99.99,,,0.07,Acu-Link.com,2015-03-03 05:14:00,